Zurück zum Katalog

STARLINK-11242

AktivKommunikationVLEO
NORAD 60903·PAYLOAD·🇺🇸 United States

Gestartet Aug 31, 2024 von Cape Canaveral Space Force Station

Loading…

Nächste Überflüge (nächste 24 Stunden)

TLE

AktuellSource: CelesTrak SupGP

Epoche: Sep 14, 2026, 21:30 UTC

1 60903C 24154A   26257.89631944  .00015719  00000+0  12952-3 0  2571
2 60903  53.1567 278.2864 0000963  86.2715 321.3513 15.69694717    15

Verfolge STARLINK-11242 in Echtzeit mit AllMySat

Download on the App Store